Overview Statistics Trail Chart Weather Telemetry Raw packets
 

This is the latest recevied weather packets stored in our database for station/object WL7CLI. If no packets are shown the sender has not sent any weather packets the latest 10 day(s).

<< 33 34 35 36 37 38 39 >>
Time Temp. Humidity Pressure Rain* Wind** Luminosity Snow
1788388090 35.56° C 51% 1008.6 hPa 0 mm - - -
1788387302 35° C 52% 1008.8 hPa 0 mm - - -
1788387030 35.56° C 51% 1008.9 hPa 0 mm - - -
1788386289 35.56° C 53% 1008.9 hPa 0 mm - - -
1788386102 35° C 54% 1009.2 hPa 0 mm - - -
1788384901 35.56° C 52% 1009.2 hPa 0 mm - - -
1788384630 35° C 50% 1009.4 hPa 0 mm - - -
1788384490 35° C 52% 1009.1 hPa 0 mm - - -
1788383701 35° C 51% 1009.5 hPa 0 mm - - -
1788383429 35° C 51% 1009.6 hPa 0 mm - - -
1788382690 35.56° C 50% 1009.4 hPa 0 mm - - -
1788382502 35.56° C 49% 1009.7 hPa 0 mm - - -
1788382230 35.56° C 49% 1009.6 hPa 0 mm - - -
1788381301 35.56° C 51% 1009.6 hPa 0 mm - - -
1788381031 35.56° C 50% 1009.6 hPa 0 mm - - -
1788380890 35.56° C 52% 1009.5 hPa 0 mm - - -
1788380101 35.56° C 52% 1009.8 hPa 0 mm - - -
1788379830 35.56° C 51% 1009.9 hPa 0 mm - - -
1788379089 35.56° C 54% 1009.9 hPa 0 mm - - -
1788378902 35.56° C 50% 1010.1 hPa 0 mm - - -
1788378630 35.56° C 51% 1010.1 hPa 0 mm - - -
1788377701 35° C 55% 1010.3 hPa 0 mm - - -
1788377435 35° C 49% 1010.3 hPa 0 mm - - -
1788377290 35.56° C 49% 1010.1 hPa 0 mm - - -
1788376501 34.44° C 52% 1010.5 hPa 0 mm - - -

* Rain latest hour (hover to see other rain measurements)
** Current wind speed in m/s (hover to see current wind gust speed)